{"data":{"norad_id":59090,"epoch":"2026-05-25T03:07:33.151584Z","epoch_age_seconds":57011,"freshness":"FRESH","line1":"1 59090U 24041S   26145.13024481  .00000779  00000+0  37854-4 0  9998","line2":"2 59090  43.0029 192.1917 0001639 262.2771  97.7895 15.27577980126442","mean_motion":15.2757798,"eccentricity":0.0001639,"inclination_deg":43.0029,"raan_deg":192.1917,"arg_perigee_deg":262.2771,"mean_anomaly_deg":97.7895,"bstar":3.7854e-5,"rev_number":12644,"period_min":94.266873367735,"perigee_km":481.9305952605,"apogee_km":484.17969404552,"semimajor_km":6861.192144653,"source":"CELESTRAK","updated_at":"2026-05-25T13:38:18.831026Z"}}